Frederick, MD

5:25 AM EST on December 09, 2019 (GMT -0500)
Frederick Municipal

Weather History for KFDK - August, 2019

Change the Weather History Date:

Tuesday, August 6, 2019

  Actual Average (WUND) Record (WUND)
Temperature  
Mean Temperature 80 °F -  
Max Temperature 91 °F - - (-1)
Min Temperature 68 °F - - (-1)
Cooling Degree Days 14    
Growing Degree Days 30 (Base 50)    
Moisture  
Dew Point 67 °F    
Average Humidity 79    
Maximum Humidity 94    
Minimum Humidity 41    
Precipitation  
Precipitation 0.00 in - - ()
Sea Level Pressure  
Sea Level Pressure 29.90 in    
Wind  
Wind Speed 2 mph (South)    
Max Wind Speed 9 mph    
Max Gust Speed -    
Visibility 10 miles    
Events Thunderstorm    
Averages and records for this station are not official NWS values.
T = Trace of Precipitation, MM = Missing Value Source: NWS Daily Summary

Daily Weather History Graph

Daily Weather History Graph

Search for Another Location

Airport or City:

Astronomy

Aug. 06, 2019 Rise Set
Actual Time 6:13 AM EDT 8:16 PM EDT
Civil Twilight 5:44 AM EDT 8:46 PM EDT
Nautical Twilight 5:07 AM EDT 9:21 PM EDT
Astronomical Twilight 4:28 AM EDT 10:00 PM EDT
Moon 12:34 PM EDT (8/6) No Moon Set
Length of Visible Light 15h 01m
Length of Day
14h 02m
Waxing Crescent, 38% of the Moon is Illuminated
Aug 6
Waxing Crescent
Aug 7
First Quarter
Aug 15
Full
Aug 23
Last Quarter
Aug 30
New

Hourly Weather History & Observations

Time (EDT) Temp. Heat Index Dew Point Humidity Pressure Visibility Wind Dir Wind Speed Gust Speed Precip Events Conditions
12:05 AM 73.4 °F - 68.0 °F 83% 29.97 in 10.0 mi SE 3.5 mph - N/A   Clear
12:25 AM 73.4 °F - 68.0 °F 83% 29.97 in 10.0 mi Calm Calm - N/A   Clear
12:45 AM 73.4 °F - 68.0 °F 83% 29.96 in 10.0 mi Calm Calm - N/A   Clear
1:05 AM 71.6 °F - 68.0 °F 88% 29.96 in 10.0 mi Calm Calm - N/A   Clear
1:25 AM 71.6 °F - 68.0 °F 88% 29.95 in 10.0 mi Calm Calm - N/A   Clear
1:45 AM 71.6 °F - 68.0 °F 88% 29.94 in 10.0 mi Calm Calm - N/A   Clear
2:25 AM 71.6 °F - 68.0 °F 88% 29.95 in 10.0 mi Calm Calm - N/A   Clear
2:45 AM 71.6 °F - 68.0 °F 88% 29.94 in 10.0 mi SSE 3.5 mph - N/A   Clear
3:05 AM 71.6 °F - 68.0 °F 88% 29.94 in 10.0 mi Calm Calm - N/A   Clear
3:25 AM 69.8 °F - 68.0 °F 94% 29.94 in 10.0 mi Calm Calm - N/A   Clear
4:05 AM 69.8 °F - 68.0 °F 94% 29.94 in 10.0 mi Calm Calm - N/A   Clear
4:25 AM 69.8 °F - 66.2 °F 88% 29.93 in 10.0 mi SE 3.5 mph - N/A   Clear
4:45 AM 69.8 °F - 66.2 °F 88% 29.93 in 10.0 mi Calm Calm - N/A   Clear
5:05 AM 69.8 °F - 66.2 °F 88% 29.92 in 10.0 mi Calm Calm - N/A   Clear
5:25 AM 69.8 °F - 66.2 °F 88% 29.92 in 10.0 mi Calm Calm - N/A   Scattered Clouds
5:45 AM 69.8 °F - 66.2 °F 88% 29.92 in 10.0 mi Calm Calm - N/A   Clear
6:05 AM 68.0 °F - 66.2 °F 94% 29.92 in 10.0 mi Calm Calm - N/A   Clear
6:25 AM 68.0 °F - 66.2 °F 94% 29.92 in 10.0 mi SE 4.6 mph - N/A   Clear
6:45 AM 68.0 °F - 66.2 °F 94% 29.93 in 7.0 mi Calm Calm - N/A   Clear
6:47 AM 69.8 °F - 66.2 °F 88% 29.93 in 10.0 mi Calm Calm - N/A   Clear
7:05 AM 68.0 °F - 66.2 °F 94% 29.93 in 7.0 mi Calm Calm - N/A   Clear
7:47 AM 69.8 °F - 66.2 °F 88% 29.93 in 9.0 mi Calm Calm - N/A   Partly Cloudy
10:50 AM 82.4 °F 86.3 °F 69.8 °F 66% 29.92 in 9.0 mi Calm Calm - N/A   Clear
11:47 AM 86.0 °F 90.4 °F 69.8 °F 58% 29.92 in 10.0 mi Calm Calm - N/A   Clear
12:48 PM 86.0 °F 87.3 °F 64.4 °F 48% 29.88 in 10.0 mi Variable 6.9 mph - N/A   Scattered Clouds
1:47 PM 89.6 °F 92.2 °F 66.2 °F 46% 29.87 in 10.0 mi SSW 6.9 mph - N/A   Clear
1:48 PM 87.8 °F 89.4 °F 64.4 °F 46% 29.84 in 10.0 mi South 9.2 mph - N/A   Mostly Cloudy
2:47 PM 91.4 °F 93.2 °F 64.4 °F 41% 29.85 in 10.0 mi SW 8.1 mph - N/A   Clear
3:47 PM 91.4 °F 93.2 °F 64.4 °F 41% 29.83 in 10.0 mi SW 5.8 mph - N/A   Clear
4:47 PM 91.4 °F 93.2 °F 64.4 °F 41% 29.82 in 10.0 mi SW 5.8 mph - N/A   Scattered Clouds
5:47 PM 89.6 °F 91.1 °F 64.4 °F 43% 29.82 in 10.0 mi South 5.8 mph - N/A   Mostly Cloudy
6:47 PM 82.4 °F 84.6 °F 66.2 °F 58% 29.83 in 10.0 mi South 4.6 mph - N/A Thunderstorm Mostly Cloudy
7:47 PM 80.6 °F 83.9 °F 69.8 °F 70% 29.83 in 10.0 mi Calm Calm - N/A Thunderstorm Mostly Cloudy
8:58 PM 75.2 °F - 71.6 °F 89% 29.85 in 10.0 mi Calm Calm - N/A Thunderstorm Mostly Cloudy
9:25 PM 73.4 °F - 69.8 °F 88% 29.85 in 10.0 mi SE 3.5 mph - N/A   Scattered Clouds
9:45 PM 73.4 °F - 69.8 °F 88% 29.86 in 10.0 mi SSE 3.5 mph - N/A   Scattered Clouds
10:05 PM 73.4 °F - 69.8 °F 88% 29.86 in 10.0 mi Calm Calm - N/A   Scattered Clouds
10:25 PM 73.4 °F - 69.8 °F 88% 29.86 in 10.0 mi Calm Calm - N/A   Scattered Clouds
10:45 PM 73.4 °F - 69.8 °F 88% 29.86 in 10.0 mi Calm Calm - N/A   Scattered Clouds
11:05 PM 73.4 °F - 68.0 °F 83% 29.86 in 10.0 mi SW 4.6 mph - N/A   Clear
11:25 PM 71.6 °F - 69.8 °F 94% 29.85 in 10.0 mi Calm Calm - N/A   Scattered Clouds
11:45 PM 71.6 °F - 69.8 °F 94% 29.85 in 10.0 mi Calm Calm - N/A   Clear